Theta_e
330 331 331 330 325 319 314 312 312 312 312 311 312 311 311 311 311 311 311 312 315 319 323 325 325 325 326 327 329 329 330 331 332 332 332 332 333 333 333 333 332 331 328 323 317 313 309 307 307 307 308 308 307 307 306 305 305 305 304 304 304 304 304 304 304 304 304 304 304 304 303 303 302 302 302 302 303 302 303 302 302 301 301 301 301
325 328 331 332 330 327 322 317 313 312 312 312 312 311 311 311 311 311 312 311 312 315 320 324 326 327 328 329 329 329 330 331 332 333 332 332 333 333 333 333 333 332 330 328 324 321 317 314 312 310 309 308 307 307 307 307 306 305 305 305 305 305 305 304 304 304 304 304 304 304 303 303 303 302 302 302 302 302 303 302 302 302 301 301 301
322 323 327 330 332 331 330 326 320 315 312 311 312 312 312 311 312 311 311 312 311 312 315 320 325 328 330 331 330 330 330 331 331 332 332 333 333 333 333 333 333 332 331 330 328 327 325 324 322 320 317 314 311 308 307 307 307 307 306 305 305 305 305 305 305 305 305 304 304 304 304 304 303 302 302 302 302 302 302 302 302 302 302 302 301
325 323 324 326 328 330 331 331 329 324 318 314 312 312 312 312 311 311 311 311 311 311 311 314 318 325 330 331 330 331 330 330 330 330 331 331 332 332 333 333 333 333 332 331 331 331 331 330 329 327 324 322 319 314 311 308 307 307 308 307 306 306 306 306 306 306 305 305 304 304 304 304 304 303 303 302 302 302 302 302 302 302 302 302 301
327 326 326 327 327 328 330 330 330 330 328 323 316 312 312 312 311 312 312 311 311 311 311 311 312 318 328 331 330 330 331 331 330 330 330 330 330 330 331 332 333 333 332 331 332 332 332 332 331 329 328 326 325 322 316 312 309 307 307 308 307 307 306 306 307 307 307 306 306 305 305 304 304 304 303 303 303 302 302 302 302 302 303 302 302
327 326 326 328 330 329 330 331 330 330 331 330 325 318 313 312 312 312 312 312 312 312 311 311 311 313 321 329 330 330 331 332 331 330 330 330 330 330 330 331 332 332 333 333 333 333 332 332 331 331 330 330 329 327 322 317 313 310 308 308 308 308 307 307 308 308 308 308 308 307 306 305 304 304 304 303 303 303 303 302 302 302 302 303 302
328 327 326 326 327 327 326 327 329 330 330 330 328 323 318 314 313 312 312 312 312 312 312 312 312 311 314 321 325 326 326 328 331 331 330 330 330 329 330 329 330 331 332 333 333 333 332 332 332 332 331 331 331 328 325 322 320 316 312 309 308 308 307 307 308 309 309 309 309 309 308 307 306 305 304 304 304 304 303 303 302 302 302 303 303
328 328 327 326 325 324 323 323 324 325 325 325 324 322 320 318 315 313 312 312 312 312 312 312 312 312 312 314 316 317 316 319 326 330 330 330 330 329 329 329 329 330 331 331 332 332 332 332 332 333 332 332 331 329 327 327 326 325 321 317 314 312 310 308 307 308 309 309 310 310 309 309 308 307 305 304 304 304 305 304 303 302 302 303 303
330 329 329 328 327 326 325 324 323 323 322 321 320 319 318 317 316 314 313 314 313 313 313 313 313 313 313 312 312 313 312 312 318 326 329 328 328 328 329 328 328 328 329 330 331 331 331 331 332 332 332 332 332 331 329 329 330 329 328 326 323 321 318 316 313 310 308 308 309 310 310 310 310 309 307 306 305 305 306 305 304 303 303 303 304
330 330 330 329 329 328 328 327 326 325 325 324 322 320 317 317 316 315 317 319 318 317 316 315 314 313 314 313 313 313 313 312 313 321 328 328 327 328 328 328 328 327 327 328 329 330 330 330 330 330 331 332 332 332 331 331 331 331 330 329 328 326 325 324 323 320 315 311 309 309 310 311 311 311 310 308 306 305 306 307 306 304 303 303 304
329 330 330 330 330 330 330 330 329 328 328 328 326 323 319 318 316 317 322 326 326 325 324 323 321 318 316 314 314 313 312 312 312 318 325 328 328 328 328 328 328 328 327 327 327 328 328 329 328 327 328 329 331 332 332 332 331 331 331 330 329 329 327 327 327 326 325 322 316 312 310 310 311 312 312 311 309 307 307 308 307 306 304 303 304
332 331 331 331 332 332 332 331 332 332 331 329 327 325 323 320 317 319 327 332 332 331 330 329 328 326 322 318 316 315 314 312 312 316 323 327 328 328 328 328 328 328 327 327 327 327 327 328 328 327 326 326 327 328 331 332 332 332 331 331 330 330 330 329 328 328 328 328 325 321 316 312 311 311 312 312 311 309 308 309 308 307 306 304 304
334 333 332 333 333 332 333 333 332 333 332 332 330 328 327 324 321 324 331 334 334 334 332 332 331 330 326 322 319 316 314 313 313 316 322 327 328 329 328 328 328 328 328 328 327 327 327 327 328 328 328 327 326 326 328 330 331 332 332 331 331 331 331 330 330 330 329 329 328 327 325 320 314 312 312 313 313 311 310 310 310 309 307 305 304
334 333 333 334 334 332 332 332 333 333 333 333 333 332 331 329 326 328 332 334 334 334 334 333 333 331 329 327 324 320 317 316 316 317 321 326 328 329 329 328 328 328 328 328 328 328 327 327 328 329 329 329 328 328 327 327 328 329 331 332 332 331 332 332 331 331 331 330 328 328 327 324 318 314 313 313 314 313 312 311 312 311 309 307 305
334 334 334 334 334 333 332 332 333 333 333 333 333 333 333 333 331 330 331 333 334 334 335 334 333 332 332 331 330 326 324 320 319 320 322 324 326 327 328 328 328 328 328 328 328 328 327 327 327 328 329 329 329 329 329 328 327 326 328 330 331 331 331 332 332 331 331 331 329 327 326 325 323 321 319 316 315 314 313 313 314 313 312 310 308
335 335 334 333 332 332 331 331 332 332 332 333 333 332 332 333 334 333 332 333 333 334 335 335 334 333 333 333 332 331 329 325 323 323 323 324 325 326 327 327 327 328 328 328 327 327 327 327 327 327 329 330 330 329 329 329 328 327 327 327 329 330 331 331 331 332 331 331 330 328 327 326 326 326 324 320 317 315 314 314 315 315 315 313 311
335 335 335 333 332 332 331 330 331 331 332 333 333 332 332 332 333 333 334 333 333 334 335 336 334 333 333 333 332 332 332 330 328 328 327 327 327 327 327 327 327 327 327 327 327 327 327 327 327 326 328 329 329 329 329 330 329 329 328 327 327 328 330 331 331 332 332 332 331 329 328 327 327 327 326 324 319 316 314 314 315 316 317 316 315
334 334 335 334 333 333 333 331 332 332 331 331 332 333 333 333 333 333 333 334 334 334 335 336 335 334 333 333 332 331 332 332 331 331 330 329 329 329 328 328 328 327 327 327 327 327 327 327 328 327 327 328 329 329 329 329 329 329 329 327 327 329 331 331 332 332 332 332 331 330 329 329 328 328 327 326 322 318 314 314 315 316 317 318 318
332 333 334 334 334 335 335 334 333 332 330 329 331 333 333 333 333 333 333 334 334 334 334 335 335 335 334 334 333 332 332 333 333 332 331 331 330 330 330 330 330 329 327 327 327 327 327 327 328 327 327 327 328 329 329 329 329 329 330 328 329 331 332 332 333 332 332 332 331 331 330 330 330 329 328 327 325 321 317 314 314 315 316 318 318
329 331 333 334 334 335 335 335 335 334 332 330 330 332 333 333 333 334 334 334 334 335 334 334 335 335 334 334 334 333 333 333 334 333 333 332 332 331 331 331 331 330 329 328 327 327 327 326 327 327 327 327 328 328 328 327 328 329 330 330 330 332 332 332 333 333 333 332 331 331 331 331 331 330 330 329 327 324 321 317 315 314 315 315 316
324 327 330 332 334 334 335 335 335 335 334 333 332 332 333 333 333 333 334 334 334 335 335 335 334 335 335 335 334 334 334 333 334 334 334 333 332 332 332 332 332 331 331 330 328 327 327 327 327 327 327 327 326 328 329 328 328 330 330 330 330 331 332 333 333 333 333 332 332 332 331 331 331 331 331 330 329 328 326 322 320 318 317 316 316
321 322 325 328 331 333 334 334 335 335 335 335 334 332 333 334 334 334 333 333 334 335 336 335 335 335 335 335 335 335 335 334 334 334 334 333 332 332 332 332 332 332 331 331 330 329 329 328 328 327 327 326 325 327 330 330 330 331 331 331 331 331 332 333 333 333 333 332 332 332 332 332 332 331 331 331 331 330 328 326 324 322 321 320 319
320 320 321 324 327 330 332 333 334 335 334 335 335 334 333 333 334 334 333 333 334 336 336 335 335 335 336 336 336 335 335 335 334 333 333 333 332 332 333 333 333 333 332 331 331 330 329 329 329 328 326 326 325 326 329 331 331 331 331 331 331 331 332 332 333 333 333 332 332 332 332 332 332 332 332 332 331 330 329 328 326 325 324 323 322
319 320 320 321 324 326 329 332 333 334 334 335 335 335 334 334 334 334 333 333 334 335 336 335 334 335 336 336 336 336 336 335 334 334 333 332 332 333 333 333 333 333 332 331 331 330 329 328 328 327 326 326 325 325 329 332 331 331 331 331 332 332 332 332 333 333 333 333 333 332 333 332 332 332 332 331 331 330 329 328 327 327 326 325 324
319 319 320 321 323 325 327 329 330 331 333 333 334 334 334 334 334 334 334 333 334 334 334 334 334 334 335 336 336 336 336 336 335 335 334 333 333 333 333 334 334 333 333 332 331 330 328 327 326 325 325 326 324 324 327 330 331 331 330 330 330 331 332 332 332 333 333 333 333 333 333 333 332 332 332 331 331 331 330 328 328 327 326 326 325
319 319 319 320 322 324 326 327 328 329 330 332 332 333 334 334 334 335 334 333 333 332 332 333 333 333 334 335 336 336 336 336 336 335 334 334 334 333 334 334 334 333 333 332 331 330 328 325 324 324 324 323 323 323 324 328 330 331 331 330 329 329 331 333 333 332 332 332 332 332 332 332 332 332 332 331 331 330 330 328 328 327 326 326 326
318 319 319 320 321 322 325 327 328 328 329 330 331 332 333 334 334 335 335 334 334 333 332 334 334 334 334 334 334 335 335 335 335 335 334 334 333 333 333 333 333 333 333 332 331 330 328 325 324 323 322 322 321 322 323 325 327 329 330 330 329 327 329 332 333 332 332 332 332 332 332 332 332 332 332 332 331 331 330 329 328 327 326 327 328
315 318 319 320 321 322 323 325 326 328 328 329 330 332 333 334 334 334 335 335 335 335 335 335 335 335 335 334 333 334 335 334 334 335 334 334 334 333 333 334 333 333 332 332 332 330 328 325 323 321 320 321 321 321 322 324 326 327 328 329 328 327 329 332 332 332 332 332 332 331 331 332 331 331 332 332 332 331 331 330 329 328 328 328 329
312 316 318 320 321 321 322 323 324 326 327 328 329 330 332 333 334 334 334 335 335 335 335 335 335 335 336 335 332 332 334 335 334 334 334 334 334 334 334 334 334 333 333 332 332 331 328 326 323 321 320 320 321 321 322 324 325 327 328 328 326 327 331 333 332 332 332 332 332 331 331 331 331 331 331 331 331 331 331 331 330 329 329 329 330
309 312 316 319 320 321 322 322 323 324 325 327 328 329 330 331 332 333 333 334 334 335 334 335 335 335 335 334 333 332 333 334 335 334 334 335 334 334 334 334 334 334 333 333 332 331 330 328 325 323 322 322 322 323 324 325 326 327 328 327 325 326 330 333 332 332 332 332 332 331 330 330 330 331 331 331 331 331 331 330 330 329 330 330 330
308 309 313 317 319 320 321 322 322 322 322 323 326 327 328 329 331 332 332 333 333 333 333 334 334 334 334 333 333 333 333 334 334 334 334 334 334 334 334 334 334 334 333 333 333 332 331 330 326 324 323 324 324 325 326 326 327 328 327 326 324 325 328 332 333 332 332 332 331 331 330 330 330 330 330 330 330 330 330 329 329 329 330 330 331
308 308 310 314 318 320 321 321 322 322 322 322 323 325 327 327 329 330 331 332 332 332 333 333 333 333 333 333 333 333 333 334 334 334 334 334 334 334 334 334 334 334 334 333 333 333 333 332 330 326 324 323 323 323 324 324 326 327 326 325 324 323 325 329 332 333 333 332 331 330 330 329 329 330 330 330 330 330 329 329 329 330 330 330 331
308 308 308 311 316 318 320 321 322 323 323 322 323 325 326 326 327 328 329 330 332 332 333 333 333 332 333 333 333 333 334 334 334 334 334 333 334 334 334 334 334 334 334 334 333 333 333 333 332 328 324 323 322 322 322 322 324 326 325 324 324 323 324 326 329 332 332 332 332 331 330 330 330 331 331 330 330 330 330 329 330 330 331 331 331
308 307 307 309 313 317 319 320 322 323 323 324 324 325 325 325 326 327 327 328 330 332 332 332 332 332 332 333 333 333 334 334 334 334 334 334 334 334 334 334 334 334 334 334 334 334 333 333 332 330 327 325 324 322 322 321 322 324 325 324 323 323 323 324 327 330 331 331 331 332 331 331 331 331 331 331 331 331 331 331 331 331 331 332 332
309 308 308 308 311 314 318 320 321 323 324 324 324 324 325 325 325 326 326 326 328 330 331 332 332 332 333 333 333 333 333 334 334 334 334 334 334 335 335 334 334 334 334 334 334 334 334 334 333 331 330 328 326 324 323 322 321 322 323 323 323 323 323 323 325 328 330 330 330 330 330 330 330 330 330 331 332 332 332 332 332 332 332 332 332
310 310 310 309 310 313 316 319 321 323 324 324 324 323 323 324 324 325 326 325 326 327 329 330 332 332 333 333 333 334 333 333 334 334 334 334 334 335 335 335 335 335 335 335 335 334 334 334 333 332 331 330 328 326 326 325 323 322 322 322 323 323 324 324 325 327 329 330 329 328 327 327 326 326 326 327 328 329 331 332 333 333 333 333 333
310 311 311 312 312 313 316 319 321 322 323 324 324 323 323 323 323 324 325 325 325 325 325 329 331 331 332 332 332 333 333 334 333 333 334 334 334 334 335 335 335 335 335 335 335 335 334 334 334 333 332 331 330 328 328 328 325 323 323 324 323 322 323 324 325 326 328 329 329 328 326 325 323 322 322 322 322 323 324 327 329 329 330 330 330
309 311 312 313 315 316 318 320 321 322 323 324 324 324 324 324 323 324 324 325 325 324 323 325 328 330 330 331 331 332 333 333 333 333 334 334 334 334 334 335 335 335 335 335 335 335 335 334 334 333 333 333 332 331 330 330 328 326 325 326 324 322 321 322 323 325 326 327 327 327 326 324 321 320 320 320 320 319 319 321 322 323 324 325 326
309 310 312 313 315 318 320 321 322 322 323 324 324 324 324 324 325 324 324 325 325 325 323 322 324 326 328 329 329 330 331 333 333 333 334 334 334 334 334 334 334 334 335 334 334 335 335 334 334 334 333 333 333 333 332 331 330 329 328 328 326 322 320 320 319 320 322 323 324 324 323 321 320 321 321 321 321 320 319 320 320 321 322 323 323
308 309 311 312 314 316 319 321 322 323 324 323 324 323 323 324 324 325 325 325 326 326 325 323 323 324 326 328 330 330 330 331 332 332 333 334 334 334 334 333 333 333 334 334 334 334 334 334 334 334 334 334 334 333 333 333 332 330 329 328 326 323 323 321 318 319 320 320 320 320 320 321 322 323 325 325 324 323 322 322 322 323 323 324 324
308 309 310 312 313 315 317 319 321 323 323 324 324 323 323 324 324 325 326 325 326 326 326 325 324 324 325 327 329 329 330 330 331 331 332 333 334 334 334 334 333 334 333 333 333 334 334 334 334 334 334 334 334 334 334 333 333 331 330 329 327 326 326 325 322 321 322 321 321 321 321 324 326 326 327 328 328 328 326 325 325 325 325 326 326
307 308 309 311 312 313 314 316 318 320 321 323 323 323 323 324 324 325 325 325 326 326 327 327 325 324 326 329 329 329 329 329 330 331 332 332 333 334 334 334 333 334 334 334 333 333 333 333 334 334 334 334 334 334 333 333 333 333 333 332 330 328 329 329 325 323 323 324 325 324 323 326 329 329 328 328 329 329 328 326 326 326 326 327 328
306 308 309 310 312 312 313 314 316 318 319 320 321 321 322 323 324 324 325 325 325 326 326 328 328 327 328 330 331 330 329 329 329 330 331 331 331 332 332 333 333 334 334 334 333 334 333 333 333 333 334 334 333 333 333 333 333 334 333 333 331 330 331 331 329 325 323 326 329 329 326 327 330 330 328 328 328 327 328 326 325 325 326 327 329
304 306 307 309 311 312 313 314 315 316 317 318 319 319 320 320 321 323 324 325 325 325 325 326 328 329 328 327 328 328 327 327 328 329 330 330 331 330 330 332 333 333 334 334 334 334 333 333 332 333 333 333 333 333 333 332 333 334 334 333 331 331 332 332 331 328 326 329 332 332 329 328 331 331 329 327 326 327 326 326 325 325 324 326 328
304 305 306 307 309 310 312 313 314 315 315 316 317 317 318 318 319 320 321 323 324 326 326 325 326 328 328 329 330 330 329 329 329 329 329 328 328 329 330 331 332 334 334 334 334 334 333 333 333 333 333 334 333 333 333 333 333 334 334 334 332 331 332 332 332 331 332 333 334 334 332 330 331 332 331 328 327 327 327 327 328 327 326 325 327
303 304 305 306 307 309 310 311 313 315 316 316 317 317 317 317 317 317 318 320 322 324 326 326 327 326 326 328 330 330 331 332 332 332 331 329 329 329 329 331 332 333 334 334 333 334 334 333 333 333 333 334 334 333 333 334 334 334 335 334 333 332 333 333 333 333 333 334 334 334 333 332 331 332 332 330 329 329 329 329 330 330 329 328 327
302 303 304 305 306 307 308 309 311 313 315 316 316 317 316 316 317 317 318 319 320 322 323 324 325 326 326 326 327 327 328 330 331 332 332 332 331 330 329 330 330 331 332 333 333 334 333 332 333 333 333 334 334 334 334 334 334 334 335 335 335 334 334 334 334 334 333 333 333 334 333 332 330 332 332 330 329 329 329 330 331 330 330 329 328
302 302 303 303 305 306 307 308 309 311 313 313 314 315 316 316 316 317 317 319 321 322 322 322 323 325 325 325 326 326 327 327 328 328 329 330 330 330 331 332 331 330 331 332 333 333 333 333 332 333 333 333 334 334 334 334 334 334 334 335 335 335 334 334 334 334 333 332 332 333 332 332 330 330 330 328 326 327 326 327 329 329 330 330 329
302 302 303 303 304 305 306 307 307 309 311 311 311 312 314 314 314 315 316 318 320 321 322 322 323 324 325 325 325 326 327 328 328 328 329 330 330 331 332 331 331 331 331 331 332 333 333 333 333 333 332 333 334 334 334 334 334 334 335 335 335 335 334 334 333 333 333 332 331 331 332 331 328 327 327 326 326 327 327 326 327 328 329 330 329
302 302 302 303 304 304 306 307 307 308 310 311 310 310 311 311 311 312 314 316 319 320 321 321 322 323 325 325 326 326 326 327 328 329 329 330 330 331 330 329 330 332 333 332 332 333 334 334 334 334 333 333 334 334 335 335 335 335 335 335 334 334 334 334 333 333 333 333 331 330 331 330 327 326 326 326 327 327 327 327 327 327 329 329 330
300 301 301 302 304 304 305 307 307 307 309 310 311 310 311 310 310 310 311 313 317 319 320 321 322 322 323 325 326 326 327 327 327 328 329 330 330 330 330 330 330 331 331 332 332 332 333 333 333 333 333 333 333 334 334 335 335 335 335 334 334 334 334 334 333 333 334 333 330 328 329 328 327 327 327 327 328 327 326 326 326 326 327 328 329
Wind_Speed
24 24 22 21 19 17 16 15 15 15 15 15 15 14 13 13 12 11 11 10 10 10 11 11 11 10 10 10 9 9 8 8 8 7 7 7 6 7 7 7 7 7 6 6 6 5 6 7 7 8 9 9 10 10 10 10 11 11 10 10 9 9 9 9 10 10 10 10 10 10 10 10 10 9 9 9 9 8 8 8 8 9 9 9 9
23 24 25 24 22 21 19 17 17 17 17 17 17 16 15 15 14 14 12 12 12 12 12 12 12 12 11 11 10 9 8 8 8 7 6 7 7 7 8 8 7 7 7 6 6 6 6 6 7 8 9 9 10 11 11 11 11 11 10 10 10 10 10 10 10 10 11 11 11 11 11 11 10 10 9 9 9 9 9 9 9 9 9 9 9
21 22 24 25 24 24 22 20 19 19 18 18 18 18 18 17 17 16 15 15 14 14 13 13 13 13 13 13 11 10 8 8 7 7 6 6 7 7 8 8 8 7 7 6 6 7 7 7 8 8 9 10 10 11 11 11 12 12 10 11 11 10 10 11 11 11 11 11 11 11 12 12 11 10 10 9 10 10 10 9 9 9 9 9 10
20 20 22 23 25 25 25 24 22 20 19 19 19 20 20 19 19 19 18 17 17 16 16 16 15 14 15 14 13 11 10 9 9 8 6 6 7 8 8 9 9 8 7 6 6 7 8 9 9 9 9 10 11 11 12 12 12 13 11 11 11 11 11 11 11 11 12 12 12 12 12 12 12 11 10 10 10 10 10 10 9 9 10 10 10
19 19 20 21 23 24 25 26 25 23 22 20 20 21 22 22 21 21 20 20 20 18 18 18 17 16 16 16 15 14 12 11 11 10 9 8 8 9 9 10 10 9 7 7 7 8 9 9 9 9 9 10 11 12 12 12 12 13 13 12 11 11 11 12 12 12 12 12 12 12 12 12 13 13 11 10 10 10 10 10 10 10 10 10 10
19 19 20 21 22 22 24 25 25 24 23 23 22 22 23 23 23 23 23 22 22 21 21 20 19 18 18 18 17 15 14 14 13 13 12 11 11 11 11 11 11 10 9 9 8 8 8 9 9 9 10 11 12 12 12 12 12 12 13 13 12 12 12 12 12 12 13 13 13 12 12 13 13 13 13 12 10 10 10 10 10 10 10 10 10
21 21 21 21 21 22 22 23 23 23 24 24 24 24 24 24 24 25 25 25 24 23 24 23 21 21 20 20 20 18 17 17 16 16 15 14 14 14 13 13 13 13 12 11 10 10 9 9 9 10 10 11 12 12 12 12 12 12 13 14 14 13 12 12 13 12 13 13 13 13 13 13 13 13 13 13 12 11 10 10 11 11 10 10 10
23 25 25 23 22 22 22 22 22 23 24 24 25 25 26 26 26 26 26 26 26 26 26 26 25 24 23 22 22 22 21 21 19 18 17 17 17 16 15 14 14 14 14 13 12 11 11 10 10 10 11 11 11 12 12 12 12 13 13 14 14 14 13 12 13 13 13 13 13 13 13 13 13 14 14 14 13 11 11 11 11 11 10 10 10
22 25 27 25 23 22 22 22 23 24 24 25 26 26 26 26 26 26 26 26 27 27 28 28 28 27 26 25 25 24 24 23 22 20 19 20 20 19 18 16 15 16 16 15 14 13 12 12 12 12 11 11 11 12 12 12 13 13 14 14 14 15 14 13 12 12 13 14 14 14 13 13 13 13 14 14 14 12 12 11 11 11 11 11 10
21 22 24 24 23 22 22 22 24 24 24 25 26 26 26 27 27 26 25 25 25 26 26 27 28 28 28 28 27 27 26 25 24 23 23 22 22 21 20 19 18 17 17 17 16 15 14 14 14 13 13 13 12 12 13 13 13 14 14 14 15 15 15 14 13 12 12 13 14 15 14 14 13 13 14 14 14 13 12 11 11 11 11 11 10
23 22 22 22 21 21 21 21 23 23 24 25 25 26 26 27 27 26 25 23 23 22 22 23 25 27 29 29 29 29 28 27 26 26 26 25 23 22 22 22 21 19 19 18 18 18 17 16 16 16 15 14 14 14 14 14 14 14 14 14 15 15 15 15 15 14 13 13 14 15 15 15 15 14 14 14 14 14 13 12 11 11 11 11 11
26 25 24 22 21 20 20 20 21 22 23 24 24 25 25 26 27 25 24 22 20 19 18 19 21 23 26 28 30 31 30 28 28 28 29 27 25 24 24 24 24 23 21 20 21 21 20 20 19 19 18 17 17 16 16 15 15 15 15 15 15 15 15 15 16 16 15 14 14 14 15 16 16 16 15 15 15 15 14 13 12 11 11 12 12
27 26 25 23 22 21 21 21 21 22 23 24 23 22 23 24 25 25 24 22 21 18 17 18 20 21 22 25 28 29 30 30 29 30 30 29 27 26 25 25 26 26 23 22 23 23 23 23 22 22 21 20 19 19 18 18 17 16 16 16 16 16 16 16 16 16 16 15 15 14 15 15 16 17 16 16 15 15 15 14 13 12 12 12 12
27 26 26 25 24 23 23 23 22 23 24 24 24 23 22 23 24 25 24 24 23 20 18 20 22 21 21 22 23 25 28 30 30 31 31 31 30 29 28 27 27 28 26 25 25 26 26 25 25 25 24 23 22 21 20 20 20 19 18 17 17 17 17 17 17 17 17 16 15 15 15 14 15 16 17 16 16 16 15 15 14 13 13 12 12
26 26 26 26 26 26 26 24 24 24 24 25 25 25 24 24 25 26 26 25 25 22 21 23 22 21 20 21 22 23 25 27 30 31 30 30 30 31 30 29 28 28 28 28 29 29 29 28 28 27 26 26 24 23 23 22 22 21 20 19 18 18 18 18 18 18 17 17 16 15 14 14 14 15 16 16 16 16 16 15 14 14 14 14 13
25 27 28 28 28 28 27 26 25 25 27 27 26 26 26 26 26 27 27 28 28 26 24 24 23 22 22 22 21 20 21 24 26 27 27 27 29 30 31 31 31 30 30 32 32 32 32 31 31 30 29 28 26 25 25 24 23 23 22 22 20 19 19 18 18 18 18 17 16 15 14 14 14 14 14 15 16 17 16 15 15 15 15 15 14
24 27 30 31 30 29 28 28 27 27 28 30 29 28 27 27 27 28 29 30 31 29 26 25 25 24 24 23 20 19 21 22 22 23 24 25 25 26 27 28 29 29 31 33 33 33 33 33 33 32 31 29 28 27 27 26 25 24 24 23 21 20 19 19 19 18 18 17 17 16 15 15 15 14 14 14 16 17 17 16 15 15 15 15 15
22 24 27 30 32 31 30 30 31 31 31 31 31 31 30 29 28 29 30 31 32 33 31 28 27 26 27 27 25 24 25 24 22 22 23 24 24 25 26 26 26 27 28 29 29 29 29 30 31 32 31 31 30 29 29 27 26 25 24 23 21 20 19 19 19 19 19 18 17 17 17 16 16 15 14 14 15 16 17 17 17 16 16 16 16
21 22 24 27 29 31 31 31 33 34 33 33 32 32 33 32 31 31 31 32 33 34 34 32 30 29 29 29 29 29 29 28 27 25 24 26 27 27 27 27 26 27 27 26 24 24 23 24 26 27 28 29 29 30 30 29 27 26 25 23 21 20 19 19 19 19 19 19 19 18 18 18 17 16 15 15 15 16 17 18 18 18 18 17 17
21 22 23 24 26 29 30 32 34 36 36 35 34 33 33 34 34 33 33 34 34 34 35 36 35 34 33 31 31 31 31 32 32 30 28 30 33 32 31 30 30 31 31 29 28 27 26 26 26 25 24 25 27 28 28 28 27 26 25 24 22 21 20 19 19 19 20 20 20 19 19 19 19 18 17 16 16 16 17 18 18 19 19 19 19
22 23 24 25 26 27 28 29 31 35 37 37 36 34 34 36 36 35 34 35 35 35 36 37 38 38 37 35 33 33 33 33 33 33 33 34 36 35 33 33 34 34 33 32 32 32 32 31 29 27 27 28 29 27 25 25 25 25 24 23 23 22 21 20 20 20 20 21 21 20 20 20 20 20 20 18 17 17 17 18 18 19 19 20 20
25 25 25 25 26 26 27 28 29 32 35 37 38 36 36 37 37 36 35 35 35 36 37 37 38 39 40 39 38 36 35 35 34 34 34 35 37 37 35 34 35 36 35 34 33 33 34 33 33 32 32 32 29 27 25 23 22 23 22 22 22 23 22 21 21 20 21 21 22 21 21 21 21 21 21 20 19 18 18 18 18 18 19 19 19
28 27 26 26 26 26 27 28 29 30 32 34 37 38 37 38 38 38 37 36 35 35 36 37 37 38 40 41 41 41 39 39 37 35 34 36 37 37 37 36 36 37 37 35 34 34 33 34 35 35 34 32 29 27 26 24 22 20 20 20 21 22 23 23 22 22 22 22 23 22 22 22 22 22 22 21 20 20 19 19 18 18 19 19 19
30 29 28 27 26 26 27 27 28 30 30 32 34 37 38 38 37 38 38 37 34 34 36 36 36 37 39 40 42 42 42 42 41 38 37 37 37 37 36 35 35 36 37 36 36 35 34 34 35 35 34 33 30 28 26 25 23 20 19 19 20 21 23 23 23 23 23 23 23 23 23 22 23 23 23 22 21 21 20 20 20 19 20 20 20
32 30 29 28 26 25 25 25 26 29 30 32 33 35 37 38 38 38 39 38 35 34 35 36 36 37 38 39 41 42 43 44 42 40 40 39 38 37 35 34 35 36 36 36 37 37 36 35 34 33 33 32 31 28 26 25 24 21 20 19 19 20 22 22 22 22 23 24 24 24 23 23 23 23 23 23 22 22 21 21 21 21 21 20 20
34 32 30 29 28 27 26 25 25 26 28 31 33 34 35 37 39 39 39 39 38 36 36 37 38 38 37 38 40 41 41 43 43 42 41 40 39 39 37 35 35 36 36 36 36 37 37 36 33 32 32 31 30 29 27 26 25 23 22 21 22 22 22 22 22 22 23 24 24 24 24 23 23 23 23 23 23 22 22 22 22 22 21 20 19
35 34 32 30 30 29 28 27 26 25 26 28 31 32 33 34 37 38 38 38 39 39 38 39 40 39 38 38 40 40 40 41 42 43 42 41 40 40 38 37 35 35 36 36 36 38 39 37 35 34 32 30 29 29 28 28 27 26 25 26 26 24 22 22 22 22 23 24 25 25 24 24 23 23 24 24 23 23 22 22 22 22 21 20 20
36 35 33 31 30 30 30 29 27 26 26 26 28 30 31 32 34 37 38 39 40 40 39 40 42 42 41 40 40 41 40 40 40 41 42 42 41 40 40 39 35 34 34 33 34 37 38 37 35 34 31 29 28 27 27 27 26 25 25 25 24 22 21 20 21 21 22 23 25 25 25 24 24 24 24 24 23 23 23 22 22 22 22 22 22
36 36 35 34 31 31 32 31 29 28 27 27 27 28 30 31 33 36 38 38 38 38 39 41 42 42 42 41 41 41 41 40 39 40 41 42 42 41 41 40 38 36 34 33 35 36 36 36 36 34 32 29 27 26 25 26 25 24 24 24 23 21 19 19 20 20 20 21 23 24 25 24 25 25 25 24 24 23 23 23 23 23 23 24 24
36 36 36 35 34 32 32 32 32 30 29 28 27 28 29 30 33 35 37 38 37 38 39 40 39 40 40 40 41 42 41 40 39 39 39 41 42 41 40 40 39 39 37 36 40 39 35 35 36 34 33 31 29 27 26 26 25 24 25 25 23 21 19 18 19 20 20 21 21 22 23 23 24 25 25 25 25 25 24 24 24 25 25 25 25
35 36 36 36 35 34 32 32 32 32 32 31 29 28 29 30 31 33 36 37 37 38 38 38 37 38 39 40 41 42 41 40 40 39 39 41 42 41 40 40 40 41 39 38 42 43 37 35 35 34 34 33 32 31 30 28 27 27 27 26 24 23 21 20 19 20 21 21 21 20 21 21 22 24 25 26 26 26 25 25 26 26 26 25 26
32 34 36 37 36 35 34 33 32 31 32 32 31 29 30 31 31 32 34 36 36 36 37 37 37 37 38 39 41 41 40 40 40 40 40 40 41 41 40 40 40 40 40 38 43 46 42 38 37 35 34 35 35 35 34 32 30 29 28 27 26 25 25 23 21 20 21 21 21 20 19 20 20 22 24 25 26 26 26 26 26 26 26 25 26
30 32 34 36 37 36 35 34 32 31 30 31 31 30 30 31 30 30 32 34 35 36 37 38 37 37 38 39 40 39 38 39 40 41 41 41 42 42 41 41 41 41 40 39 42 47 45 41 39 36 33 33 35 36 35 34 33 31 30 28 27 26 26 26 25 23 22 21 22 21 20 19 20 21 22 24 25 25 26 26 26 26 26 27 27
28 28 30 34 36 36 35 34 33 32 31 31 31 30 30 31 31 30 30 32 34 37 38 38 38 38 38 39 40 39 37 38 39 40 42 42 42 42 42 42 41 41 41 40 41 45 45 42 40 37 33 31 33 34 34 34 34 33 32 30 28 27 27 28 28 27 25 23 23 22 22 22 22 22 23 24 25 26 26 27 27 28 28 29 29
24 24 26 29 33 35 34 34 34 32 31 31 31 31 30 31 31 30 30 31 34 36 39 40 39 38 38 39 40 39 37 38 39 40 41 43 42 42 42 42 41 41 40 41 41 43 44 43 41 39 35 31 31 33 33 33 34 34 34 32 30 28 28 29 30 29 28 26 25 25 25 25 25 25 26 27 27 28 28 29 30 30 31 31 31
23 22 22 25 29 32 33 33 33 33 32 31 32 32 31 31 30 30 30 31 33 35 38 39 39 39 39 40 40 40 39 39 41 41 41 43 43 42 42 42 42 41 40 41 42 43 43 43 42 41 38 34 32 32 32 33 34 34 34 33 31 30 29 30 31 31 31 29 28 28 28 28 29 29 29 30 30 31 31 32 32 32 33 33 33
22 22 21 22 24 28 30 32 32 32 32 32 32 32 32 31 31 31 31 32 33 35 37 39 39 39 40 42 42 41 41 41 42 42 43 44 43 43 42 42 42 42 41 41 43 43 43 44 44 42 41 37 33 31 31 33 33 34 34 34 33 32 32 32 32 33 33 32 31 30 30 30 31 32 33 33 33 33 33 33 33 34 34 34 35
23 22 21 21 21 22 25 29 31 33 33 33 33 32 31 31 31 31 32 32 33 34 36 38 39 39 40 42 42 42 42 42 43 44 44 44 44 43 43 42 42 42 42 41 42 43 43 44 45 43 42 41 36 31 30 31 32 33 34 35 34 34 34 34 34 34 34 34 33 32 31 31 31 33 34 34 34 33 33 33 33 32 32 32 33
26 23 21 20 20 20 21 24 29 31 32 32 32 32 30 29 30 31 32 32 32 34 36 38 38 39 40 41 42 43 43 43 43 45 45 45 45 45 44 43 42 42 42 42 42 42 43 44 44 44 43 43 40 35 30 29 31 32 33 34 36 36 36 35 35 35 34 34 34 32 31 31 31 31 32 32 31 31 31 31 31 30 30 30 30
28 26 23 22 21 21 21 23 26 27 27 28 30 32 31 30 30 30 31 32 33 34 36 38 39 39 40 40 40 41 42 43 44 45 45 46 46 45 45 43 42 42 41 42 42 42 42 43 44 44 44 43 42 39 32 29 31 34 33 33 35 36 35 35 36 35 34 34 33 31 30 28 28 29 28 28 27 26 28 29 28 28 28 27 28
29 29 26 24 23 22 22 23 25 26 26 26 27 28 29 29 30 30 30 32 34 34 36 38 40 41 41 41 41 41 41 42 44 45 46 46 46 46 45 44 43 42 41 42 42 42 42 43 43 44 44 44 43 42 38 33 32 33 32 32 34 35 34 33 35 34 31 29 28 28 28 26 25 25 25 25 24 23 24 26 26 26 26 25 25
29 30 30 27 25 23 23 23 24 25 26 27 28 27 27 26 27 28 30 32 34 35 35 36 38 41 41 40 41 42 42 42 42 44 45 45 46 47 47 46 45 43 41 42 42 43 42 43 44 43 44 46 46 44 42 37 32 31 31 31 32 32 31 31 32 31 27 23 23 25 27 24 22 23 25 25 25 24 24 25 26 25 25 24 23
26 30 32 31 29 26 25 24 25 25 25 27 28 28 28 26 25 26 28 30 33 35 35 35 35 37 40 41 42 43 44 43 43 44 45 45 45 46 47 47 47 45 44 43 43 44 43 43 44 44 44 47 48 45 43 39 34 31 31 31 29 29 31 31 30 29 26 21 19 23 26 26 23 24 26 27 27 26 26 26 27 26 25 24 23
24 27 30 32 32 31 29 28 27 26 25 26 27 28 28 28 27 27 28 29 30 32 35 36 36 36 38 40 41 43 45 45 44 44 45 45 46 46 45 45 46 47 47 47 45 45 44 44 46 46 45 46 47 46 43 39 35 32 30 30 28 28 30 31 29 28 25 20 18 21 25 26 25 26 27 28 28 27 26 27 27 26 27 26 24
24 25 27 31 33 34 33 32 31 30 27 26 26 27 28 28 28 29 30 30 31 32 33 35 36 37 37 38 39 40 41 43 45 44 43 44 45 44 43 43 44 46 49 48 46 45 45 45 47 48 46 46 46 46 43 38 34 33 32 30 29 28 30 31 29 26 24 22 21 23 26 26 25 26 27 28 28 27 25 25 24 25 27 27 25
26 24 25 27 31 34 35 36 36 35 33 30 28 27 27 28 28 29 30 30 31 34 35 35 35 36 38 39 41 41 40 41 43 43 41 41 42 42 42 42 43 45 48 47 46 46 46 46 49 50 47 46 47 45 42 37 35 35 35 33 31 30 31 31 30 29 29 29 27 27 29 28 25 28 28 26 27 27 26 25 24 23 25 26 25
30 29 27 26 27 31 35 38 39 40 39 36 34 32 29 28 28 28 29 30 31 34 37 38 38 38 38 38 40 42 43 42 42 42 39 38 40 42 43 43 43 44 45 45 46 47 47 47 49 50 47 46 47 45 42 39 37 36 36 36 35 34 33 33 33 34 34 33 31 31 33 31 26 29 31 27 26 29 27 27 26 24 24 25 26
29 30 30 29 28 28 30 35 39 43 44 41 39 38 36 32 31 30 30 32 34 35 36 38 39 40 39 38 39 41 43 45 44 43 42 42 42 43 43 43 44 44 44 44 44 45 46 47 48 48 46 45 46 45 43 41 40 37 36 37 37 37 36 35 37 38 36 34 33 33 35 32 26 28 31 28 27 30 30 29 28 27 26 26 26
29 28 29 30 30 30 29 30 34 40 44 43 40 40 41 38 36 34 32 33 35 36 36 37 38 40 41 41 40 40 42 44 44 42 42 43 43 43 43 44 45 46 45 43 43 44 45 46 48 49 47 45 45 45 43 42 41 38 37 39 39 38 38 37 38 38 35 32 31 31 33 31 24 24 27 27 28 30 30 30 30 29 28 27 27
29 28 29 30 31 31 31 31 31 34 39 41 39 39 40 40 38 36 35 35 36 38 37 37 37 39 41 42 42 43 43 44 43 41 40 41 42 43 44 44 45 46 46 44 43 44 45 45 47 48 47 45 45 44 43 42 41 40 41 42 39 38 40 40 39 38 36 33 29 27 31 31 25 23 26 27 29 31 30 29 28 28 28 28 28
29 28 29 31 32 31 31 30 30 30 32 36 36 35 36 35 33 33 35 36 38 39 37 36 36 36 38 40 41 43 44 43 43 42 41 41 42 44 44 43 44 46 46 45 44 44 45 45 45 46 45 44 42 41 40 40 41 42 43 42 39 39 42 42 40 40 39 35 26 23 28 30 26 25 27 27 30 32 31 30 30 29 28 28 29
Wind_Direction
232 232 232 232 231 231 229 228 229 230 232 234 234 233 234 233 231 231 229 228 227 227 231 234 236 240 246 251 260 269 269 267 272 281 281 280 287 294 295 294 293 296 302 311 317 313 305 300 297 298 300 304 306 307 308 309 310 311 314 315 315 316 317 315 313 313 313 312 312 312 311 311 311 312 314 317 320 325 329 331 330 329 330 330 330
234 233 233 233 234 234 234 233 231 232 234 235 236 236 237 237 236 235 235 233 231 230 231 234 236 237 240 244 252 262 269 268 268 273 275 275 281 290 294 295 294 296 298 302 310 315 316 313 310 307 303 303 302 303 305 306 306 308 311 312 312 314 313 313 311 311 311 310 310 310 309 309 308 310 313 315 317 319 321 324 326 327 328 327 325
240 236 234 235 236 237 238 239 236 235 236 237 238 238 238 240 240 238 238 238 236 234 233 235 237 239 240 240 244 252 262 266 266 269 271 274 280 287 292 294 296 297 296 296 306 313 316 317 316 315 312 309 306 303 302 303 304 304 307 308 309 310 310 309 309 309 309 308 308 307 307 308 307 307 310 312 313 313 315 317 321 324 325 324 322
244 241 238 237 238 239 240 241 242 240 240 241 241 242 242 241 242 241 240 241 241 240 239 239 240 241 241 239 240 246 254 260 264 269 272 277 281 287 290 292 294 294 291 290 301 311 313 313 313 314 315 316 314 309 303 302 302 302 303 304 304 305 305 305 306 306 306 306 306 306 306 307 307 307 307 309 310 309 309 311 315 318 322 321 319
243 245 243 241 241 241 242 243 244 244 244 244 244 245 246 244 244 243 243 243 244 245 244 244 243 242 240 239 241 245 252 256 261 267 270 276 281 285 288 291 291 289 285 285 293 305 310 312 312 311 313 314 314 312 309 304 301 300 300 301 300 298 299 300 301 302 302 303 303 304 305 305 306 306 306 306 306 306 306 308 310 313 317 317 316
243 245 245 245 245 245 245 246 247 248 247 247 246 246 248 248 247 246 246 245 246 247 247 248 247 245 242 239 241 245 251 256 260 263 266 272 277 280 283 286 289 289 286 283 287 296 303 307 308 309 310 309 308 308 310 309 304 301 299 299 298 295 294 295 296 297 298 300 301 302 303 304 304 304 304 304 303 305 306 308 308 308 311 313 314
250 248 246 246 247 248 249 249 250 251 250 249 248 248 248 249 249 249 248 247 248 248 250 251 250 249 247 245 245 248 253 257 258 260 262 268 273 277 279 280 285 288 289 287 287 290 295 299 300 303 305 306 305 303 306 309 309 306 302 299 298 296 292 290 290 292 294 295 298 299 300 302 304 303 302 302 302 304 305 306 304 303 307 310 311
261 256 249 247 248 249 252 253 253 251 252 251 250 249 249 249 249 249 250 249 249 249 250 253 252 252 251 250 251 253 257 258 257 257 259 263 267 271 274 276 280 284 287 288 288 290 292 293 293 294 296 300 300 299 300 304 308 308 305 301 299 298 294 289 288 288 290 291 292 294 297 299 301 302 301 300 299 301 303 304 301 301 304 307 308
267 266 257 251 251 253 254 254 255 254 253 253 251 250 249 249 248 248 249 251 251 251 251 253 254 254 253 253 254 256 259 260 259 257 256 259 262 265 269 272 276 278 282 285 287 288 290 290 290 289 287 288 291 292 293 295 299 302 302 300 299 298 298 295 291 289 289 288 287 288 291 294 295 297 298 297 296 297 300 301 300 299 300 303 305
265 268 262 255 253 255 255 254 254 254 254 254 254 252 250 249 248 246 247 249 252 253 254 255 256 256 254 254 254 255 257 259 259 255 254 256 259 262 265 268 269 272 276 280 282 284 286 287 287 286 283 282 283 284 285 286 289 292 294 295 295 296 297 298 298 296 292 289 286 285 286 287 289 291 292 293 293 292 294 296 297 297 297 298 301
259 261 260 258 256 256 257 255 254 253 255 256 254 252 249 248 247 244 243 246 249 253 256 258 259 259 256 254 254 254 255 256 256 254 252 255 258 261 263 264 265 267 271 275 279 280 281 283 283 284 284 283 283 282 280 280 282 283 285 287 290 292 294 296 298 299 297 293 288 285 284 283 283 284 286 288 290 290 290 292 294 295 294 295 297
255 255 258 261 261 262 262 259 256 254 255 255 254 251 249 249 248 245 242 244 247 250 255 260 262 262 259 255 253 253 254 255 255 253 252 254 257 261 262 263 263 264 267 271 276 277 278 279 279 281 282 284 284 283 281 279 279 278 277 279 283 288 290 292 294 297 298 295 289 285 284 282 280 280 280 282 285 286 288 288 290 292 292 293 294
251 251 255 261 263 265 266 265 262 257 255 256 256 254 253 252 250 246 243 245 247 247 253 258 259 260 260 258 255 253 254 254 254 253 252 253 256 259 261 262 261 262 266 270 272 274 276 277 277 278 280 282 284 284 282 279 277 276 275 275 278 282 285 288 290 294 297 295 290 286 283 281 279 278 278 279 279 280 282 284 286 288 288 289 290
247 247 251 257 261 262 262 263 265 262 258 258 258 256 253 251 250 247 245 246 248 247 249 251 252 256 261 264 261 255 252 252 253 253 251 252 255 258 261 262 262 262 265 269 271 273 275 276 275 276 277 279 282 284 284 280 276 275 275 275 275 277 279 282 285 288 293 294 292 288 284 281 277 277 277 277 277 276 277 280 282 284 284 284 285
246 246 250 255 260 262 261 261 263 265 263 260 259 258 254 251 249 249 249 250 250 248 247 246 248 253 258 261 263 261 257 253 253 253 253 254 257 259 261 262 263 264 266 268 270 272 275 276 275 274 275 277 280 283 284 283 279 275 273 273 273 274 275 277 279 281 286 289 291 289 285 281 279 279 278 277 276 274 273 275 279 282 283 283 282
251 248 249 252 257 260 262 261 260 264 267 265 262 260 257 254 251 250 252 252 251 249 247 246 244 245 249 253 259 262 260 257 255 257 258 259 261 262 263 265 267 268 268 269 271 273 276 277 277 275 274 275 277 280 283 284 283 278 273 270 270 271 272 272 273 275 278 283 286 287 284 282 283 283 281 277 275 273 270 270 274 279 281 283 282
253 251 250 251 254 255 257 257 256 257 263 265 265 263 261 259 255 252 252 252 253 254 252 248 244 242 245 248 250 252 257 262 264 265 265 265 266 266 266 267 269 270 271 272 274 276 278 278 278 278 277 275 276 278 281 282 283 280 274 269 266 267 269 269 269 270 272 274 278 280 280 280 281 283 282 278 274 272 269 266 267 272 277 280 282
254 253 253 253 253 253 253 254 254 254 256 259 263 264 263 260 257 256 254 254 255 257 256 252 247 245 245 248 250 254 261 267 268 268 270 270 269 271 271 271 272 272 273 274 276 278 280 280 280 280 281 280 279 279 280 281 281 279 275 269 264 263 264 264 264 265 266 267 269 271 273 276 277 279 280 277 274 271 268 266 265 267 271 275 278
258 254 254 255 255 254 253 253 254 255 254 254 256 261 263 263 261 260 259 257 256 256 256 255 252 248 247 248 252 255 260 263 262 264 271 273 273 274 275 275 274 274 273 274 275 279 282 283 283 284 286 286 285 283 281 280 279 277 274 269 262 259 258 259 261 262 263 263 264 265 268 271 273 274 276 276 273 270 268 267 266 267 268 271 274
264 259 255 254 254 255 255 254 253 254 255 255 254 256 260 262 263 261 261 260 258 257 258 257 255 253 251 250 252 254 256 259 260 261 265 270 273 273 273 275 275 276 277 275 275 277 281 284 287 289 290 292 292 290 284 280 278 275 272 268 262 258 255 256 258 261 261 261 260 262 265 267 270 272 273 274 274 273 271 269 269 270 270 272 274
268 265 259 255 254 254 256 257 256 255 254 255 256 254 254 257 259 261 261 261 260 260 260 259 257 256 256 256 255 256 256 258 260 260 258 261 267 270 272 274 276 278 280 280 279 277 278 281 285 287 288 292 296 295 289 281 276 274 271 267 262 257 255 254 256 258 259 259 259 260 263 265 267 269 270 271 273 275 275 273 272 272 273 274 275
272 268 265 260 256 254 255 257 258 258 256 255 256 254 251 252 255 259 261 262 262 261 260 260 259 258 258 259 258 257 256 256 256 256 255 254 258 264 269 271 274 278 281 282 282 280 278 279 281 283 285 289 293 294 292 286 279 274 271 268 263 259 256 255 255 255 255 256 257 258 260 263 265 266 267 269 270 272 274 275 275 275 275 276 276
276 272 268 265 261 256 254 255 257 259 258 257 257 255 252 251 253 256 258 259 261 261 259 260 261 260 258 258 259 258 258 258 259 259 257 255 256 261 266 270 273 277 281 282 283 283 281 279 280 282 283 285 288 290 289 287 282 277 273 269 264 260 257 256 254 253 252 253 255 256 258 261 263 264 265 267 267 268 270 271 273 274 276 277 279
275 275 271 269 267 263 258 256 255 256 257 258 259 258 257 254 253 254 256 257 257 258 258 259 260 260 259 258 259 260 261 262 263 263 263 262 261 261 265 270 271 275 280 283 284 285 283 281 281 281 282 282 283 284 284 285 282 279 277 272 266 262 259 257 254 252 251 252 253 255 257 259 260 262 263 264 264 265 266 268 269 271 274 277 279
272 273 273 271 270 268 263 259 257 256 256 257 258 260 259 256 252 250 252 253 252 253 256 259 261 263 262 261 260 261 263 263 263 263 264 264 263 262 263 266 268 272 279 281 282 284 283 282 280 280 281 281 280 279 279 280 280 280 281 279 275 271 265 260 256 253 252 253 253 254 256 257 258 260 260 261 262 263 264 265 266 268 271 274 276
270 270 271 271 270 269 266 262 258 256 256 256 257 259 259 256 252 249 251 251 249 250 254 257 261 263 264 262 261 261 264 265 263 263 263 263 262 263 263 265 267 271 276 278 280 281 280 280 280 279 279 278 278 277 275 275 276 278 281 282 284 283 275 266 259 255 253 254 254 255 255 256 256 257 258 259 260 260 261 263 265 267 268 270 271
266 267 267 268 269 268 266 265 261 256 255 256 256 257 257 256 255 254 253 251 249 251 253 255 258 261 263 263 262 262 264 265 265 264 264 264 265 266 265 264 265 270 274 275 277 277 278 279 280 278 277 275 276 275 274 274 275 276 280 282 285 286 279 269 263 258 255 254 255 255 255 255 255 255 256 257 258 259 260 261 262 264 265 267 270
262 263 264 265 266 266 264 264 263 258 256 256 255 254 253 253 254 255 255 253 251 251 252 255 257 260 262 263 263 262 262 264 266 266 266 266 267 268 266 263 262 265 270 273 273 275 278 279 278 277 277 276 275 274 274 276 277 279 282 284 286 286 279 272 267 263 259 256 255 255 255 255 255 255 255 256 257 258 259 259 260 261 262 265 269
262 259 259 260 262 263 263 263 262 260 257 256 255 254 252 251 251 253 254 254 254 252 252 256 258 258 260 261 261 262 262 263 265 266 266 266 267 267 266 264 262 261 264 269 271 273 276 280 280 279 279 278 276 276 276 277 279 282 284 283 283 284 281 276 271 267 264 260 257 255 254 254 254 255 255 255 255 256 257 258 258 260 262 265 269
266 259 256 256 259 260 260 261 261 259 258 257 256 255 255 253 251 252 252 253 254 254 254 257 256 255 258 259 259 260 261 263 264 266 266 266 266 266 266 265 263 261 261 264 271 273 274 277 279 280 281 281 280 279 278 278 279 283 284 283 281 280 282 282 275 268 265 262 259 255 253 253 254 254 255 255 255 254 255 256 257 258 261 264 267
272 263 256 253 254 257 258 259 259 258 257 257 256 255 256 255 254 252 251 251 253 254 255 256 255 255 256 257 257 258 259 262 263 265 265 265 265 265 265 264 264 264 262 261 267 272 272 274 278 280 281 282 281 280 279 278 279 282 283 282 281 277 277 280 277 271 267 264 261 257 254 253 253 254 255 256 256 256 256 257 258 259 261 264 267
279 268 258 251 250 253 255 256 257 256 255 255 255 254 254 255 255 253 252 251 251 252 253 254 255 256 256 255 255 256 258 260 262 263 264 265 266 265 264 264 264 265 264 259 262 268 271 274 277 280 281 280 279 278 278 277 277 278 280 280 280 277 274 274 274 273 271 267 264 260 257 255 254 254 255 256 256 257 259 260 262 263 265 266 267
288 274 263 253 249 251 254 255 256 255 254 253 253 254 254 255 255 253 253 252 250 249 251 252 253 255 257 256 255 256 257 258 260 261 262 264 265 264 263 263 263 264 262 259 260 266 270 272 274 278 281 280 278 277 276 276 274 275 277 278 278 275 271 270 271 272 271 269 267 264 261 259 258 258 257 258 258 259 260 263 265 267 268 269 269
296 282 268 256 250 250 252 254 255 253 252 251 251 253 254 256 257 256 255 253 250 249 250 251 252 255 257 257 256 256 257 257 257 259 260 261 261 261 261 262 262 263 262 260 260 264 268 271 273 275 278 278 277 277 276 274 274 275 276 275 275 273 269 268 269 269 269 269 267 264 262 262 261 260 260 259 260 260 262 263 265 267 268 269 270
300 287 274 261 252 250 251 253 254 254 251 250 250 251 253 255 257 257 256 254 252 251 252 252 253 255 257 258 258 257 257 256 256 256 258 259 259 258 260 261 261 264 264 263 263 264 266 270 272 272 273 274 275 276 277 276 274 274 274 273 273 272 270 268 268 268 268 269 268 265 263 263 262 261 261 261 261 262 263 265 266 268 269 270 272
297 288 278 266 257 253 250 251 253 254 252 251 251 251 253 254 256 257 257 256 254 252 253 253 254 254 254 255 257 257 257 256 255 255 256 257 258 257 258 259 260 262 264 263 264 264 265 267 270 270 270 271 273 274 276 276 275 274 274 274 273 273 271 269 268 268 268 270 270 268 266 266 265 264 264 264 264 264 265 265 267 269 271 273 274
295 290 281 270 261 256 253 251 251 253 253 253 253 253 253 254 255 256 257 258 256 255 253 253 253 254 254 255 256 258 256 254 253 254 254 255 256 256 256 257 258 261 263 263 264 263 262 264 268 270 269 270 271 272 273 274 274 275 275 275 275 274 272 269 268 268 270 272 273 272 272 273 272 270 269 268 268 269 268 268 268 270 272 273 275
294 291 283 272 260 256 257 252 248 250 251 250 251 252 252 252 252 253 255 257 257 257 255 254 253 254 254 255 256 257 256 253 252 253 253 253 254 254 255 256 257 259 260 262 263 262 260 263 266 267 267 267 268 271 272 273 274 276 277 277 276 273 271 269 268 268 271 274 276 277 278 279 277 275 273 271 271 271 271 271 271 273 274 274 275
290 289 284 275 261 253 254 251 246 248 249 247 247 249 252 253 252 252 254 254 256 257 257 256 254 253 254 255 255 254 253 252 253 254 254 253 253 254 254 254 256 257 258 260 262 260 259 261 263 264 265 265 266 269 272 273 274 274 274 275 274 272 271 271 269 269 272 275 278 281 283 283 281 278 275 273 272 272 273 273 274 274 274 273 273
284 285 283 279 270 258 252 248 243 244 246 245 246 250 254 255 254 253 254 254 254 256 257 257 255 253 254 256 257 256 254 251 251 254 253 252 252 253 253 253 254 256 256 257 258 258 257 258 260 262 264 263 264 266 268 269 269 269 271 273 275 275 275 274 272 272 274 277 280 283 284 284 282 280 278 276 275 275 274 274 274 272 271 271 271
279 281 280 278 275 269 261 253 244 241 244 245 246 249 253 256 257 256 255 254 253 254 258 259 258 255 255 257 259 259 256 253 252 252 253 252 252 253 252 252 254 255 256 255 254 254 255 255 256 259 260 260 261 262 263 264 266 270 274 275 276 278 279 278 276 275 277 280 280 280 280 282 283 281 279 278 277 277 274 272 272 272 273 273 271
279 279 279 277 273 271 269 264 254 247 246 246 245 246 249 253 257 257 257 257 256 256 260 263 262 259 257 259 261 261 260 258 256 254 253 252 253 254 254 253 254 253 253 253 252 251 252 253 254 256 256 258 260 260 261 265 268 271 273 272 275 280 281 280 277 274 274 276 277 276 275 277 280 279 277 276 275 276 275 272 273 275 277 276 272
285 279 278 278 276 274 271 267 262 258 255 252 251 249 248 250 254 255 256 258 258 258 260 263 265 262 258 256 257 258 260 261 259 257 255 254 254 254 255 255 256 254 252 252 252 250 251 253 254 254 254 256 261 262 262 265 268 269 271 273 276 279 278 277 276 273 270 270 276 278 274 274 279 277 274 274 274 276 278 276 275 276 276 275 271
296 284 279 276 275 274 272 267 264 262 261 259 259 258 255 253 254 255 256 258 259 260 259 260 262 263 261 260 258 257 258 259 260 259 257 255 254 255 255 255 256 257 256 255 253 251 251 253 254 254 252 255 260 261 260 263 268 270 271 272 272 273 273 272 271 270 271 274 279 279 274 274 281 282 277 275 276 278 279 278 276 275 274 274 273
310 295 285 278 274 273 272 269 266 264 262 260 261 262 262 261 260 260 260 260 260 261 260 260 259 259 260 261 262 262 262 260 259 258 258 258 256 255 255 255 256 257 256 255 254 253 253 254 254 254 254 254 258 260 261 264 268 269 267 267 268 268 269 268 267 269 276 281 280 279 277 275 279 283 280 277 277 277 277 276 276 276 275 274 272
328 315 300 288 278 274 273 272 269 265 263 261 261 263 265 267 268 268 267 265 263 261 260 260 261 259 258 257 257 259 263 262 256 254 257 260 259 257 256 256 255 255 255 253 252 253 254 254 253 254 255 255 257 261 264 265 266 267 266 267 269 270 271 272 273 275 278 279 278 278 278 276 277 280 280 277 277 277 275 274 274 275 275 274 272
334 329 321 308 292 279 274 273 271 267 264 262 262 262 264 267 270 272 273 271 268 264 260 258 259 260 260 261 258 256 259 261 257 254 256 258 260 261 262 260 257 256 255 252 250 251 253 253 253 254 256 257 258 261 264 264 266 268 269 271 272 273 274 274 274 273 273 275 276 274 275 276 277 279 280 278 277 277 276 274 274 273 273 273 273
327 327 326 321 312 297 282 275 272 268 265 264 264 262 262 264 266 269 271 271 271 269 264 261 259 258 259 261 260 257 256 258 258 258 259 259 259 260 261 261 260 259 257 253 252 254 255 255 255 256 257 258 259 261 262 263 265 268 270 270 269 268 267 266 267 270 271 272 272 271 272 275 274 275 277 278 277 276 275 273 271 270 270 270 270
322 323 323 321 319 313 301 288 279 271 265 265 266 264 262 263 263 264 265 267 270 271 269 265 262 260 258 258 259 258 257 256 257 258 259 259 258 256 255 256 258 259 258 256 255 256 256 256 258 257 257 258 259 260 261 261 263 265 264 262 261 262 262 259 261 266 268 268 268 268 271 272 269 270 275 279 278 276 274 273 272 271 269 267 266
322 323 322 320 318 315 310 301 292 280 269 264 265 264 263 263 263 261 261 263 267 271 272 271 268 265 261 258 257 257 257 257 257 257 257 257 256 255 254 254 254 255 256 257 257 257 256 256 258 258 257 257 257 258 258 258 259 260 259 258 259 260 259 257 257 263 266 264 261 263 268 270 270 273 277 279 279 277 277 278 278 277 275 273 270
322 324 325 322 318 316 313 306 299 290 276 266 263 263 262 263 264 261 258 259 263 267 271 274 276 275 271 265 260 257 256 256 256 255 255 255 254 254 254 254 252 251 252 253 254 256 257 258 259 259 258 257 255 255 255 253 253 254 255 255 256 255 255 255 256 259 261 259 255 258 266 271 275 277 278 280 280 280 281 283 284 284 283 280 277